TGM annuale;;;;;;;;;;;;;;;TGM annuale;;;;;;;;;;;;;;;TGM annuale;;;;;;;;;;;;;
Tratta nr.17 SR68, Km 40.850, Volterra(PI) (flussi ascendente/discendente);;;;;;;;;;;;;;;Tratta nr.17 SR68, Km 40.850, Volterra(PI) (flusso ascendente);;;;;;;;;;;;;;;Tratta nr.17 SR68, Km 40.850, Volterra(PI) (flusso discendente);;;;;;;;;;;;;
Anno;01 Motocicli;02 Auto e monovolume;03 Auto e monovolume con rimorchio;04 Furgoncini e camioncini;05 Camion;06 Autotreni;07 Autoarticolati;08 Autobus;09 Veicoli non classificati;Totale;Feriali;Festivi;Prefestivi;;Anno;01 Motocicli;02 Auto e monovolume;03 Auto e monovolume con rimorchio;04 Furgoncini e camioncini;05 Camion;06 Autotreni;07 Autoarticolati;08 Autobus;09 Veicoli non classificati;Totale;Feriali;Festivi;Prefestivi;;Anno;01 Motocicli;02 Auto e monovolume;03 Auto e monovolume con rimorchio;04 Furgoncini e camioncini;05 Camion;06 Autotreni;07 Autoarticolati;08 Autobus;09 Veicoli non classificati;Totale;Feriali;Festivi;Prefestivi
2017;572;3778;2;358;75;9;5;6;0;4805;4680;5106;5054;;2017;333;1927;1;197;41;5;3;3;0;2509;2432;2798;2540;;2017;239;1852;1;161;34;4;3;3;0;2296;2249;2308;2514
;;;;;;;;;;;;;;;;;;;;;;;;;;;;;;;;;;;;;;;;;;;
Tabella flussi 2017;;;;;;;;;;;;;;;Tabella flussi 2017;;;;;;;;;;;;;;;Tabella flussi 2017;;;;;;;;;;;;;
Tratta nr.17 SR68, Km 40.850, Volterra(PI) (flussi ascendente/discendente);;;;;;;;;;;;;;;Tratta nr.17 SR68, Km 40.850, Volterra(PI) (flusso ascendente);;;;;;;;;;;;;;;Tratta nr.17 SR68, Km 40.850, Volterra(PI) (flusso discendente);;;;;;;;;;;;;
;Traffico Totale;;;;;;;;;;Traffico Med.Orario 06:00 - 20:00;Traffico Ora di punta;;;;Traffico Totale;;;;;;;;;;Traffico Med.Orario 06:00 - 20:00;Traffico Ora di punta;;;;Traffico Totale;;;;;;;;;;Traffico Med.Orario 06:00 - 20:00;Traffico Ora di punta;
Giorno;01 Motocicli;02 Auto e monovolume;03 Auto e monovolume con rimorchio;04 Furgoncini e camioncini;05 Camion;06 Autotreni;07 Autoarticolati;08 Autobus;09 Veicoli non classificati;Totale;Totale;Ora di punta;Flusso totale ora di punta;;Giorno;01 Motocicli;02 Auto e monovolume;03 Auto e monovolume con rimorchio;04 Furgoncini e camioncini;05 Camion;06 Autotreni;07 Autoarticolati;08 Autobus;09 Veicoli non classificati;Totale;Totale;Ora di punta;Flusso totale ora di punta;;Giorno;01 Motocicli;02 Auto e monovolume;03 Auto e monovolume con rimorchio;04 Furgoncini e camioncini;05 Camion;06 Autotreni;07 Autoarticolati;08 Autobus;09 Veicoli non classificati;Totale;Totale;Ora di punta;Flusso totale ora di punta
01/01/2017;563;3366;0;211;18;8;0;2;0;4168;251;17;435;;01/01/2017;346;1782;0;115;11;4;0;1;0;2259;136;17;273;;01/01/2017;217;1584;0;96;7;4;0;1;0;1909;114;12;248
02/01/2017;370;2830;0;301;37;14;3;0;0;3555;231;17;331;;02/01/2017;235;1482;0;153;24;6;1;0;0;1901;124;15;202;;02/01/2017;135;1348;0;148;13;8;2;0;0;1654;108;17;163
03/01/2017;354;2599;2;283;55;2;2;0;0;3297;214;15;311;;03/01/2017;207;1294;1;166;24;1;1;0;0;1694;110;15;173;;03/01/2017;147;1305;1;117;31;1;1;0;0;1603;104;17;158
04/01/2017;406;2846;1;322;55;14;3;2;0;3649;239;15;340;;04/01/2017;231;1429;0;174;25;10;1;2;0;1872;122;15;193;;04/01/2017;175;1417;1;148;30;4;2;0;0;1777;117;11;176
05/01/2017;482;2846;1;292;75;4;2;3;0;3705;236;14;299;;05/01/2017;281;1437;1;148;43;1;0;3;0;1914;122;14;182;;05/01/2017;201;1409;0;144;32;3;2;0;0;1791;114;17;174
06/01/2017;404;2643;0;154;23;1;0;1;0;3226;198;15;298;;06/01/2017;240;1348;0;87;16;0;0;1;0;1692;101;16;179;;06/01/2017;164;1295;0;67;7;1;0;0;0;1534;96;11;187
07/01/2017;492;2832;0;232;55;7;0;0;0;3618;217;16;350;;07/01/2017;296;1427;0;133;29;4;0;0;0;1889;117;15;199;;07/01/2017;196;1405;0;99;26;3;0;0;0;1729;100;11;155
08/01/2017;353;2028;0;142;7;2;0;0;0;2532;155;15;213;;08/01/2017;223;1068;0;80;6;2;0;0;0;1379;85;14;128;;08/01/2017;130;960;0;62;1;0;0;0;0;1153;70;11;118
09/01/2017;314;2261;1;237;61;6;6;1;0;2887;185;17;249;;09/01/2017;199;1165;1;133;31;2;3;1;0;1535;99;7;157;;09/01/2017;115;1096;0;104;30;4;3;0;0;1352;86;17;156
10/01/2017;309;2232;0;285;77;6;7;1;0;2917;188;8;244;;10/01/2017;204;1138;0;153;41;2;1;0;0;1539;100;7;151;;10/01/2017;105;1094;0;132;36;4;6;1;0;1378;88;17;133
11/01/2017;334;2334;1;291;48;5;8;1;0;3022;193;17;303;;11/01/2017;216;1213;1;143;27;2;4;1;0;1607;103;7;174;;11/01/2017;118;1121;0;148;21;3;4;0;0;1415;90;17;177
12/01/2017;323;2375;1;240;46;9;4;1;0;2999;191;17;275;;12/01/2017;210;1226;1;128;28;5;0;1;0;1599;102;7;154;;12/01/2017;113;1149;0;112;18;4;4;0;0;1400;89;17;155
13/01/2017;364;2375;0;272;67;5;1;1;0;3085;197;16;257;;13/01/2017;240;1193;0;159;39;2;1;0;0;1634;105;16;156;;13/01/2017;124;1182;0;113;28;3;0;1;0;1451;91;17;158
14/01/2017;366;2180;1;204;41;3;3;0;0;2798;172;11;206;;14/01/2017;234;1125;1;113;21;1;0;0;0;1495;93;14;120;;14/01/2017;132;1055;0;91;20;2;3;0;0;1303;80;11;116
15/01/2017;287;1771;0;111;7;0;0;0;0;2176;130;17;196;;15/01/2017;178;895;0;58;5;0;0;0;0;1136;69;15;118;;15/01/2017;109;876;0;53;2;0;0;0;0;1040;60;17;119
16/01/2017;358;2324;1;235;57;6;3;0;0;2984;193;7;275;;16/01/2017;230;1213;1;122;31;4;1;0;0;1602;102;7;165;;16/01/2017;128;1111;0;113;26;2;2;0;0;1382;90;17;154
17/01/2017;332;2221;0;239;62;9;3;1;0;2867;185;7;233;;17/01/2017;207;1163;0;128;32;4;2;1;0;1537;98;7;140;;17/01/2017;125;1058;0;111;30;5;1;0;0;1330;87;17;124
18/01/2017;316;2256;0;265;67;18;4;0;0;2926;190;7;278;;18/01/2017;195;1162;0;143;33;11;3;0;0;1547;100;7;187;;18/01/2017;121;1094;0;122;34;7;1;0;0;1379;90;17;160
19/01/2017;389;2390;0;265;52;12;4;0;0;3112;198;7;251;;19/01/2017;260;1231;0;145;25;6;2;0;0;1669;105;7;164;;19/01/2017;129;1159;0;120;27;6;2;0;0;1443;93;17;139
20/01/2017;374;2490;0;311;65;5;4;1;0;3250;203;17;271;;20/01/2017;258;1283;0;164;39;1;1;0;0;1746;110;14;147;;20/01/2017;116;1207;0;147;26;4;3;1;0;1504;93;17;154
21/01/2017;364;2289;0;197;39;4;2;0;0;2895;178;17;229;;21/01/2017;228;1138;0;108;20;4;1;0;0;1499;94;13;124;;21/01/2017;136;1151;0;89;19;0;1;0;0;1396;84;12;115
22/01/2017;403;2095;4;137;13;2;0;2;0;2656;161;15;248;;22/01/2017;246;1088;2;73;8;0;0;2;0;1419;87;15;150;;22/01/2017;157;1007;2;64;5;2;0;0;0;1237;75;11;117
23/01/2017;346;2338;1;283;58;6;7;0;0;3039;195;7;264;;23/01/2017;226;1218;1;160;28;0;4;0;0;1637;105;7;176;;23/01/2017;120;1120;0;123;30;6;3;0;0;1402;90;17;138
24/01/2017;359;2263;0;290;78;9;16;1;0;3016;194;17;276;;24/01/2017;237;1189;0;157;41;5;8;0;0;1637;106;7;145;;24/01/2017;122;1074;0;133;37;4;8;1;0;1379;88;17;151
25/01/2017;389;2449;0;284;58;8;4;1;0;3193;205;17;298;;25/01/2017;258;1240;0;161;30;7;3;0;0;1699;109;7;188;;25/01/2017;131;1209;0;123;28;1;1;1;0;1494;96;17;167
26/01/2017;364;2404;0;300;57;12;8;1;0;3146;202;7;260;;26/01/2017;229;1235;0;167;30;6;2;1;0;1670;108;7;181;;26/01/2017;135;1169;0;133;27;6;6;0;0;1476;94;17;151
27/01/2017;399;2507;1;292;91;4;9;0;0;3303;211;17;283;;27/01/2017;267;1271;1;161;46;2;3;0;0;1751;112;7;172;;27/01/2017;132;1236;0;131;45;2;6;0;0;1552;99;17;165
28/01/2017;379;2307;0;227;36;5;3;1;0;2958;184;15;258;;28/01/2017;236;1191;0;119;17;2;2;1;0;1568;98;15;157;;28/01/2017;143;1116;0;108;19;3;1;0;0;1390;86;11;124
29/01/2017;456;2528;0;139;9;3;0;1;0;3136;195;18;317;;29/01/2017;292;1306;0;83;5;0;0;1;0;1687;106;17;191;;29/01/2017;164;1222;0;56;4;3;0;0;0;1449;88;11;151
30/01/2017;355;2387;0;260;58;11;5;0;0;3076;197;7;300;;30/01/2017;242;1250;0;144;38;8;1;0;0;1683;107;7;202;;30/01/2017;113;1137;0;116;20;3;4;0;0;1393;90;17;138
31/01/2017;316;2237;2;299;72;6;9;0;0;2941;189;7;243;;31/01/2017;193;1154;2;152;37;3;6;0;0;1547;100;7;159;;31/01/2017;123;1083;0;147;35;3;3;0;0;1394;89;17;140
01/02/2017;361;2537;0;272;49;8;9;0;0;3236;211;17;267;;01/02/2017;228;1288;0;151;27;5;3;0;0;1702;111;7;169;;01/02/2017;133;1249;0;121;22;3;6;0;0;1534;100;17;159
02/02/2017;352;2531;1;288;77;9;11;2;0;3271;209;8;267;;02/02/2017;224;1255;0;169;44;3;6;2;0;1703;108;7;164;;02/02/2017;128;1276;1;119;33;6;5;0;0;1568;101;17;167
03/02/2017;344;2728;1;299;61;23;6;0;0;3462;221;17;298;;03/02/2017;214;1373;1;171;26;12;3;0;0;1800;114;14;168;;03/02/2017;130;1355;0;128;35;11;3;0;0;1662;107;17;172
04/02/2017;342;2209;1;183;37;0;6;2;0;2780;167;15;246;;04/02/2017;208;1107;1;95;24;0;3;0;0;1438;88;15;147;;04/02/2017;134;1102;0;88;13;0;3;2;0;1342;79;18;113
05/02/2017;295;1778;0;110;6;0;0;0;0;2189;128;15;193;;05/02/2017;183;902;0;59;5;0;0;0;0;1149;69;15;120;;05/02/2017;112;876;0;51;1;0;0;0;0;1040;59;11;92
06/02/2017;277;2340;0;237;68;4;2;2;0;2930;189;17;254;;06/02/2017;185;1203;0;134;35;2;1;1;0;1561;101;7;155;;06/02/2017;92;1137;0;103;33;2;1;1;0;1369;87;17;146
07/02/2017;341;2503;0;302;64;11;9;0;0;3230;207;7;256;;07/02/2017;232;1293;0;153;35;8;4;0;0;1725;111;7;163;;07/02/2017;109;1210;0;149;29;3;5;0;0;1505;97;17;138
08/02/2017;372;2462;1;289;61;13;10;0;0;3208;207;7;293;;08/02/2017;247;1272;1;161;38;6;5;0;0;1730;112;7;203;;08/02/2017;125;1190;0;128;23;7;5;0;0;1478;95;17;152
09/02/2017;382;2434;2;284;54;9;5;1;0;3171;202;17;297;;09/02/2017;255;1247;1;166;32;2;4;0;0;1707;108;7;164;;09/02/2017;127;1187;1;118;22;7;1;1;0;1464;94;17;164
10/02/2017;412;2605;0;297;68;13;13;0;0;3408;214;17;280;;10/02/2017;248;1314;0;155;39;10;4;0;0;1770;112;7;157;;10/02/2017;164;1291;0;142;29;3;9;0;0;1638;102;18;162
11/02/2017;;;;;;;;;;;;;;;11/02/2017;;;;;;;;;;;;;;;11/02/2017;;;;;;;;;;;;;
12/02/2017;;;;;;;;;;;;;;;12/02/2017;;;;;;;;;;;;;;;12/02/2017;;;;;;;;;;;;;
13/02/2017;353;2361;0;295;58;6;8;0;0;3081;198;17;282;;13/02/2017;224;1208;0;166;33;2;2;0;0;1635;103;7;155;;13/02/2017;129;1153;0;129;25;4;6;0;0;1446;95;18;148
14/02/2017;412;2652;0;334;72;10;9;1;0;3490;221;17;331;;14/02/2017;268;1372;0;190;40;6;2;1;0;1879;120;7;162;;14/02/2017;144;1280;0;144;32;4;7;0;0;1611;101;17;171
15/02/2017;378;2656;0;322;64;10;11;0;0;3441;222;17;286;;15/02/2017;226;1350;0;178;29;4;6;0;0;1793;117;7;170;;15/02/2017;152;1306;0;144;35;6;5;0;0;1648;105;17;150
16/02/2017;408;2582;2;286;61;5;6;0;0;3350;216;17;293;;16/02/2017;254;1299;1;147;33;3;1;0;0;1738;112;7;166;;16/02/2017;154;1283;1;139;28;2;5;0;0;1612;104;18;156
17/02/2017;399;2647;0;314;64;11;8;1;0;3444;219;17;280;;17/02/2017;252;1339;0;178;36;5;4;1;0;1815;116;7;152;;17/02/2017;147;1308;0;136;28;6;4;0;0;1629;103;18;146
18/02/2017;537;2703;2;208;39;2;1;0;0;3492;215;16;323;;18/02/2017;330;1360;1;121;25;1;0;0;0;1838;113;15;179;;18/02/2017;207;1343;1;87;14;1;1;0;0;1654;103;16;145
19/02/2017;559;3102;1;163;17;8;0;0;0;3850;239;17;408;;19/02/2017;335;1637;0;98;9;6;0;0;0;2085;130;17;291;;19/02/2017;224;1465;1;65;8;2;0;0;0;1765;109;11;217
20/02/2017;353;2402;0;277;75;5;1;1;0;3114;201;7;255;;20/02/2017;234;1275;0;152;47;1;0;1;0;1710;110;7;176;;20/02/2017;119;1127;0;125;28;4;1;0;0;1404;91;18;161
21/02/2017;348;2507;0;299;72;6;1;1;0;3234;207;7;278;;21/02/2017;205;1280;0;156;41;4;1;0;0;1687;108;7;176;;21/02/2017;143;1227;0;143;31;2;0;1;0;1547;99;17;142
22/02/2017;406;2553;0;303;66;7;4;0;0;3339;218;17;271;;22/02/2017;236;1301;0;169;36;2;1;0;0;1745;113;7;154;;22/02/2017;170;1252;0;134;30;5;3;0;0;1594;104;17;157
23/02/2017;374;2558;0;318;61;13;4;1;0;3329;211;17;284;;23/02/2017;241;1307;0;176;31;5;0;1;0;1761;111;8;160;;23/02/2017;133;1251;0;142;30;8;4;0;0;1568;100;18;160
24/02/2017;323;2444;1;244;67;11;8;2;0;3100;195;8;234;;24/02/2017;198;1218;0;124;38;6;6;1;0;1591;102;7;144;;24/02/2017;125;1226;1;120;29;5;2;1;0;1509;93;17;139
25/02/2017;418;2724;1;216;50;6;3;2;0;3420;211;16;282;;25/02/2017;215;1354;0;117;23;5;1;2;0;1717;106;16;156;;25/02/2017;203;1370;1;99;27;1;2;0;0;1703;105;11;167
26/02/2017;581;3069;2;171;13;11;0;0;0;3847;240;17;409;;26/02/2017;325;1624;1;102;10;5;0;0;0;2067;129;17;275;;26/02/2017;256;1445;1;69;3;6;0;0;0;1780;110;12;187
27/02/2017;379;2614;0;295;59;6;6;2;0;3361;218;17;281;;27/02/2017;253;1347;0;163;34;4;3;2;0;1806;116;7;167;;27/02/2017;126;1267;0;132;25;2;3;0;0;1555;102;17;141
28/02/2017;362;2466;0;297;85;10;6;1;0;3227;206;17;287;;28/02/2017;229;1259;0;176;41;3;4;1;0;1713;110;7;167;;28/02/2017;133;1207;0;121;44;7;2;0;0;1514;96;17;148
01/03/2017;376;2661;1;315;72;4;6;2;0;3437;222;17;300;;01/03/2017;233;1326;1;166;37;2;4;1;0;1770;114;8;156;;01/03/2017;143;1335;0;149;35;2;2;1;0;1667;107;17;166
02/03/2017;382;2613;0;287;64;4;5;1;0;3356;214;17;285;;02/03/2017;237;1300;0;156;36;1;0;1;0;1731;110;15;139;;02/03/2017;145;1313;0;131;28;3;5;0;0;1625;104;17;162
03/03/2017;450;2758;0;313;64;8;1;2;0;3596;230;17;293;;03/03/2017;268;1392;0;160;30;5;0;1;0;1856;120;7;161;;03/03/2017;182;1366;0;153;34;3;1;1;0;1740;110;17;156
04/03/2017;417;2482;1;209;45;5;5;3;0;3167;193;15;257;;04/03/2017;254;1245;1;115;26;3;2;3;0;1649;101;15;153;;04/03/2017;163;1237;0;94;19;2;3;0;0;1518;92;11;127
05/03/2017;340;2387;0;124;10;9;1;2;0;2873;170;16;277;;05/03/2017;194;1275;0;65;5;5;0;2;0;1546;94;17;173;;05/03/2017;146;1112;0;59;5;4;1;0;0;1327;76;16;143
06/03/2017;287;2434;0;251;50;4;4;2;0;3032;195;7;253;;06/03/2017;189;1263;0;139;31;1;2;1;0;1626;105;7;170;;06/03/2017;98;1171;0;112;19;3;2;1;0;1406;90;17;126
07/03/2017;378;2604;3;312;83;13;4;3;0;3400;217;17;284;;07/03/2017;224;1342;2;164;40;8;1;1;0;1782;114;7;169;;07/03/2017;154;1262;1;148;43;5;3;2;0;1618;103;17;149
08/03/2017;405;2748;0;314;76;6;4;5;0;3558;226;7;306;;08/03/2017;256;1412;0;172;37;4;2;3;0;1886;121;7;200;;08/03/2017;149;1336;0;142;39;2;2;2;0;1672;105;17;145
09/03/2017;421;2811;1;306;74;7;8;9;0;3637;232;15;280;;09/03/2017;267;1418;1;160;39;2;3;6;0;1896;122;15;181;;09/03/2017;154;1393;0;146;35;5;5;3;0;1741;110;18;145
10/03/2017;454;2904;2;298;64;8;10;3;0;3743;233;17;303;;10/03/2017;270;1446;1;162;27;6;5;2;0;1919;122;7;173;;10/03/2017;184;1458;1;136;37;2;5;1;0;1824;111;18;170
11/03/2017;530;3016;2;244;53;5;1;2;0;3853;238;16;312;;11/03/2017;314;1473;1;126;30;2;0;2;0;1948;121;16;189;;11/03/2017;216;1543;1;118;23;3;1;0;0;1905;117;10;185
12/03/2017;634;3625;2;207;27;5;0;5;0;4505;280;17;471;;12/03/2017;373;1922;0;119;16;1;0;5;0;2436;151;17;319;;12/03/2017;261;1703;2;88;11;4;0;0;0;2069;128;11;231
13/03/2017;401;2660;0;306;78;12;7;5;0;3469;221;17;320;;13/03/2017;236;1359;0;159;49;6;2;4;0;1815;117;7;170;;13/03/2017;165;1301;0;147;29;6;5;1;0;1654;104;17;155
14/03/2017;392;2641;0;346;80;11;6;2;0;3478;225;17;313;;14/03/2017;243;1347;0;188;37;4;1;2;0;1822;117;7;152;;14/03/2017;149;1294;0;158;43;7;5;0;0;1656;108;17;169
15/03/2017;422;2767;2;310;72;8;12;2;0;3595;232;17;330;;15/03/2017;256;1410;1;161;38;8;6;1;0;1881;121;17;174;;15/03/2017;166;1357;1;149;34;0;6;1;0;1714;111;17;156
16/03/2017;388;2743;1;311;56;7;5;6;0;3517;226;18;300;;16/03/2017;256;1360;1;168;29;5;0;2;0;1821;117;13;156;;16/03/2017;132;1383;0;143;27;2;5;4;0;1696;109;18;157
17/03/2017;446;3112;1;331;72;6;6;4;0;3978;251;17;344;;17/03/2017;244;1532;1;189;39;5;3;3;0;2016;125;17;164;;17/03/2017;202;1580;0;142;33;1;3;1;0;1962;126;17;180
18/03/2017;531;2960;1;252;47;2;2;3;0;3798;239;17;333;;18/03/2017;292;1463;0;127;26;2;0;1;0;1911;120;17;178;;18/03/2017;239;1497;1;125;21;0;2;2;0;1887;119;11;176
19/03/2017;677;3569;0;165;14;7;0;2;0;4434;275;17;477;;19/03/2017;381;1901;0;103;10;2;0;0;0;2397;149;17;331;;19/03/2017;296;1668;0;62;4;5;0;2;0;2037;127;12;215
20/03/2017;390;2650;0;335;64;12;7;5;0;3463;224;7;292;;20/03/2017;241;1345;0;179;38;5;2;2;0;1812;118;7;192;;20/03/2017;149;1305;0;156;26;7;5;3;0;1651;106;17;147
21/03/2017;396;2647;1;341;83;4;8;3;0;3483;226;17;285;;21/03/2017;226;1345;0;178;46;0;4;1;0;1800;117;7;163;;21/03/2017;170;1302;1;163;37;4;4;2;0;1683;109;17;148
22/03/2017;380;2823;2;320;81;9;5;2;0;3622;233;17;297;;22/03/2017;240;1448;1;166;42;7;1;1;0;1906;123;7;166;;22/03/2017;140;1375;1;154;39;2;4;1;0;1716;111;10;156
23/03/2017;407;2710;0;364;87;8;5;5;0;3586;226;8;294;;23/03/2017;247;1372;0;200;43;2;3;3;0;1870;118;14;160;;23/03/2017;160;1338;0;164;44;6;2;2;0;1716;108;17;146
24/03/2017;420;3025;0;355;92;7;5;4;0;3908;249;17;336;;24/03/2017;266;1467;0;201;51;3;3;3;0;1994;127;17;174;;24/03/2017;154;1558;0;154;41;4;2;1;0;1914;122;18;178
25/03/2017;590;3060;4;257;58;4;3;5;0;3981;246;16;308;;25/03/2017;318;1520;2;128;32;2;1;4;0;2007;122;15;170;;25/03/2017;272;1540;2;129;26;2;2;1;0;1974;123;11;158
26/03/2017;537;3338;2;196;21;9;0;0;0;4103;251;16;372;;26/03/2017;291;1739;0;123;15;5;0;0;0;2173;132;18;266;;26/03/2017;246;1599;2;73;6;4;0;0;0;1930;118;11;214
27/03/2017;368;2934;0;315;92;9;6;4;0;3728;242;17;300;;27/03/2017;229;1525;0;155;41;9;3;4;0;1966;127;7;174;;27/03/2017;139;1409;0;160;51;0;3;0;0;1762;115;17;158
28/03/2017;358;2671;0;310;106;6;9;7;0;3467;222;17;316;;28/03/2017;233;1359;0;169;43;4;3;6;0;1817;116;17;159;;28/03/2017;125;1312;0;141;63;2;6;1;0;1650;106;17;157
29/03/2017;385;2811;0;321;91;12;3;9;0;3632;231;17;314;;29/03/2017;225;1431;0;166;50;6;2;6;0;1886;119;7;168;;29/03/2017;160;1380;0;155;41;6;1;3;0;1746;112;10;157
30/03/2017;469;2859;1;339;99;19;13;9;0;3808;239;17;320;;30/03/2017;293;1435;0;176;49;8;5;4;0;1970;124;17;178;;30/03/2017;176;1424;1;163;50;11;8;5;0;1838;115;12;150
31/03/2017;446;3011;1;372;92;8;4;11;0;3945;247;17;305;;31/03/2017;277;1496;0;208;44;2;3;7;0;2037;128;8;165;;31/03/2017;169;1515;1;164;48;6;1;4;0;1908;120;17;152
01/04/2017;589;3223;10;334;70;4;1;4;0;4235;265;15;345;;01/04/2017;331;1607;5;163;34;1;0;3;0;2144;133;17;198;;01/04/2017;258;1616;5;171;36;3;1;1;0;2091;132;11;214
02/04/2017;558;3121;4;244;31;13;1;3;0;3975;248;16;368;;02/04/2017;314;1656;2;128;18;7;1;2;0;2128;133;16;235;;02/04/2017;244;1465;2;116;13;6;0;1;0;1847;115;10;173
03/04/2017;417;2872;5;328;91;13;8;8;0;3742;241;17;336;;03/04/2017;258;1450;4;168;43;11;6;5;0;1945;126;17;176;;03/04/2017;159;1422;1;160;48;2;2;3;0;1797;115;17;160
04/04/2017;428;2860;2;320;125;10;12;8;0;3765;240;17;322;;04/04/2017;266;1464;1;174;66;3;5;4;0;1983;125;17;168;;04/04/2017;162;1396;1;146;59;7;7;4;0;1782;115;17;154
05/04/2017;407;2974;0;355;104;15;10;11;0;3876;251;17;355;;05/04/2017;249;1512;0;187;48;11;1;7;0;2015;130;17;192;;05/04/2017;158;1462;0;168;56;4;9;4;0;1861;120;17;163
06/04/2017;427;3253;8;373;128;17;12;11;0;4229;259;15;327;;06/04/2017;237;1641;3;200;70;8;6;7;0;2172;133;15;192;;06/04/2017;190;1612;5;173;58;9;6;4;0;2057;125;12;172
07/04/2017;507;3755;20;466;137;17;5;5;0;4912;301;17;419;;07/04/2017;301;1890;16;251;73;12;1;2;0;2546;159;17;227;;07/04/2017;206;1865;4;215;64;5;4;3;0;2366;142;17;192
08/04/2017;794;4522;17;369;83;15;4;5;0;5809;344;16;434;;08/04/2017;497;2556;11;212;54;7;2;4;0;3343;195;9;282;;08/04/2017;297;1966;6;157;29;8;2;1;0;2466;149;16;237
09/04/2017;793;4262;4;287;38;15;2;7;0;5408;312;18;493;;09/04/2017;439;2205;3;173;20;9;1;4;0;2854;167;18;355;;09/04/2017;354;2057;1;114;18;6;1;3;0;2554;145;11;278
10/04/2017;483;3357;2;373;113;14;5;5;0;4352;280;17;347;;10/04/2017;283;1736;1;190;68;6;4;5;0;2293;149;17;208;;10/04/2017;200;1621;1;183;45;8;1;0;0;2059;131;11;175
11/04/2017;491;3424;0;400;112;17;7;5;0;4456;286;15;361;;11/04/2017;257;1739;0;230;57;9;3;3;0;2298;148;15;206;;11/04/2017;234;1685;0;170;55;8;4;2;0;2158;138;18;191
12/04/2017;462;3582;1;455;122;14;12;9;0;4657;294;17;415;;12/04/2017;252;1768;0;236;69;8;7;8;0;2348;150;17;236;;12/04/2017;210;1814;1;219;53;6;5;1;0;2309;145;16;217
13/04/2017;522;3943;4;511;76;11;5;1;0;5073;316;17;422;;13/04/2017;288;1940;4;260;39;5;4;1;0;2541;160;17;235;;13/04/2017;234;2003;0;251;37;6;1;0;0;2532;156;10;203
14/04/2017;588;4333;2;572;78;12;7;3;0;5595;347;17;531;;14/04/2017;313;2083;0;302;48;6;3;2;0;2757;170;17;260;;14/04/2017;275;2250;2;270;30;6;4;1;0;2838;176;17;271
15/04/2017;726;4854;4;588;72;20;2;5;0;6271;397;16;576;;15/04/2017;338;2261;2;299;44;8;1;4;0;2957;188;16;296;;15/04/2017;388;2593;2;289;28;12;1;1;0;3314;209;11;329
16/04/2017;776;5741;2;464;43;30;2;3;0;7061;433;17;694;;16/04/2017;416;2851;1;261;28;17;1;2;0;3577;212;18;383;;16/04/2017;360;2890;1;203;15;13;1;1;0;3484;220;11;434
17/04/2017;975;7056;2;495;42;47;3;4;0;8624;522;17;817;;17/04/2017;531;3872;0;320;29;31;2;4;0;4789;275;17;586;;17/04/2017;444;3184;2;175;13;16;1;0;0;3835;247;12;454
18/04/2017;498;3726;3;417;108;13;4;4;0;4773;307;17;412;;18/04/2017;310;1962;2;235;53;8;2;2;0;2574;166;15;245;;18/04/2017;188;1764;1;182;55;5;2;2;0;2199;141;11;186
19/04/2017;439;3439;3;425;114;17;9;3;0;4449;290;17;380;;19/04/2017;246;1739;1;221;61;8;3;3;0;2282;149;16;190;;19/04/2017;193;1700;2;204;53;9;6;0;0;2167;141;17;217
20/04/2017;449;3411;2;416;128;14;5;11;0;4436;287;17;379;;20/04/2017;247;1692;2;222;63;9;2;7;0;2244;147;16;198;;20/04/2017;202;1719;0;194;65;5;3;4;0;2192;139;17;188
21/04/2017;432;3602;1;424;108;14;8;10;0;4599;291;17;387;;21/04/2017;226;1764;1;224;56;5;3;7;0;2286;146;17;196;;21/04/2017;206;1838;0;200;52;9;5;3;0;2313;145;17;191
22/04/2017;643;4097;3;406;75;9;5;5;0;5243;323;16;473;;22/04/2017;311;1901;2;218;48;7;2;3;0;2492;153;15;241;;22/04/2017;332;2196;1;188;27;2;3;2;0;2751;170;16;244
23/04/2017;850;5539;7;449;34;20;2;3;0;6904;434;16;665;;23/04/2017;420;2736;1;255;22;8;2;2;0;3446;216;18;395;;23/04/2017;430;2803;6;194;12;12;0;1;0;3458;218;11;411
24/04/2017;743;5326;1;573;101;20;3;6;0;6773;439;15;642;;24/04/2017;379;2624;1;293;53;9;2;3;0;3364;219;15;363;;24/04/2017;364;2702;0;280;48;11;1;3;0;3409;219;11;382
25/04/2017;688;5159;0;390;35;20;1;7;0;6300;400;17;613;;25/04/2017;392;2851;0;252;22;9;1;0;0;3527;223;18;420;;25/04/2017;296;2308;0;138;13;11;0;7;0;2773;176;11;342
26/04/2017;397;3331;2;397;113;16;5;7;0;4268;278;15;313;;26/04/2017;237;1732;1;212;54;10;3;3;0;2252;147;7;173;;26/04/2017;160;1599;1;185;59;6;2;4;0;2016;131;17;183
27/04/2017;376;3165;3;442;138;16;12;7;0;4159;268;17;358;;27/04/2017;188;1589;1;220;61;5;4;2;0;2070;133;17;188;;27/04/2017;188;1576;2;222;77;11;8;5;0;2089;134;10;187
28/04/2017;395;3624;1;428;119;10;2;8;0;4587;291;16;393;;28/04/2017;203;1709;0;229;56;5;1;7;0;2210;143;15;211;;28/04/2017;192;1915;1;199;63;5;1;1;0;2377;148;16;192
29/04/2017;666;4377;4;390;105;24;2;8;0;5576;342;16;512;;29/04/2017;313;2028;3;189;58;12;1;5;0;2609;157;16;243;;29/04/2017;353;2349;1;201;47;12;1;3;0;2967;186;11;294
30/04/2017;831;5467;5;396;36;16;3;7;0;6761;418;17;587;;30/04/2017;394;2633;2;220;21;7;1;4;0;3282;200;17;357;;30/04/2017;437;2834;3;176;15;9;2;3;0;3479;218;11;419
01/05/2017;651;5446;2;403;55;32;3;2;0;6594;419;12;671;;01/05/2017;383;3112;2;261;38;15;2;2;0;3815;241;15;397;;01/05/2017;268;2334;0;142;17;17;1;0;0;2779;178;11;378
02/05/2017;403;3501;3;390;100;10;5;17;0;4429;283;11;355;;02/05/2017;229;1802;1;217;51;8;2;9;0;2319;148;15;212;;02/05/2017;174;1699;2;173;49;2;3;8;0;2110;135;11;193
03/05/2017;415;3370;2;418;107;13;8;11;0;4344;281;15;352;;03/05/2017;209;1677;1;218;61;4;5;6;0;2181;143;16;191;;03/05/2017;206;1693;1;200;46;9;3;5;0;2163;139;12;177
04/05/2017;386;3537;3;403;102;8;8;8;0;4455;285;16;338;;04/05/2017;184;1775;0;206;58;5;5;3;0;2236;144;7;171;;04/05/2017;202;1762;3;197;44;3;3;5;0;2219;141;19;188
05/05/2017;416;3739;1;459;99;14;10;11;0;4749;294;16;387;;05/05/2017;208;1803;1;239;55;5;6;5;0;2322;146;16;198;;05/05/2017;208;1936;0;220;44;9;4;6;0;2427;149;17;192
06/05/2017;396;3101;2;315;98;5;2;9;0;3928;247;16;322;;06/05/2017;211;1527;1;166;57;1;1;6;0;1970;124;15;178;;06/05/2017;185;1574;1;149;41;4;1;3;0;1958;123;10;198
07/05/2017;515;3401;1;237;38;9;1;6;0;4208;256;18;376;;07/05/2017;278;1798;0;133;23;6;0;5;0;2243;136;18;252;;07/05/2017;237;1603;1;104;15;3;1;1;0;1965;121;11;202
08/05/2017;407;3274;1;391;101;9;7;3;0;4193;266;17;361;;08/05/2017;211;1641;0;203;56;5;2;1;0;2119;135;17;171;;08/05/2017;196;1633;1;188;45;4;5;2;0;2074;131;17;190
09/05/2017;462;3204;1;407;102;11;1;9;0;4197;265;17;344;;09/05/2017;261;1626;1;205;50;5;1;5;0;2154;137;16;192;;09/05/2017;201;1578;0;202;52;6;0;4;0;2043;129;17;178
10/05/2017;338;3311;0;435;101;16;7;6;0;4214;269;17;354;;10/05/2017;182;1656;0;229;55;8;2;4;0;2136;136;15;175;;10/05/2017;156;1655;0;206;46;8;5;2;0;2078;133;17;184
11/05/2017;363;3229;0;415;101;10;3;12;0;4133;261;15;346;;11/05/2017;215;1612;0;212;56;5;0;7;0;2107;132;15;209;;11/05/2017;148;1617;0;203;45;5;3;5;0;2026;129;17;182
12/05/2017;400;3566;3;473;89;10;4;12;0;4557;289;17;368;;12/05/2017;210;1709;2;227;48;4;1;8;0;2209;141;15;199;;12/05/2017;190;1857;1;246;41;6;3;4;0;2348;148;16;194
13/05/2017;587;3769;7;326;78;10;3;7;0;4787;294;16;426;;13/05/2017;268;1805;3;183;39;5;1;3;0;2307;143;16;231;;13/05/2017;319;1964;4;143;39;5;2;4;0;2480;151;15;233
14/05/2017;649;3394;6;239;43;14;0;3;0;4348;259;16;382;;14/05/2017;384;1888;6;145;19;10;0;1;0;2453;144;18;281;;14/05/2017;265;1506;0;94;24;4;0;2;0;1895;115;12;191